Regional Weather Roundup
Issued by NWS

Home | Current Version | Previous Version | Graphics & Text | Print | Product List | Glossary On
Versions: 1 2 3 4 5 6 7 8 9 10 11 12 13 14 15 16 17 18 19 20 21 22 23 24 25 26 27 28 29 30 31 32 33 34 35 36 37 38 39 40 41 42 43 44 45 46 47 48 49 50
000
ASUS43 KIND 121709
RWRIN

WEATHER ROUNDUP FOR INDIANA
NATIONAL WEATHER SERVICE INDIANAPOLIS IN
1200 PM EST TUE DEC 12 2017

NOTE: "FAIR" INDICATES FEW OR NO CLOUDS BELOW 12,000 FEET WITH NO
SIGNIFICANT WEATHER AND/OR OBSTRUCTIONS TO VISIBILITY.

* - STATION DOES NOT REPORT WEATHER SUCH AS PRECIPITATION OR FOG.

+ - STATION NOT QUALITY CONTROLLED BY THE NATIONAL WEATHER SERVICE.
    USE DATA WITH CAUTION...ESPECIALLY DEWPOINT AND RELATIVE
    HUMIDITY OBSERVATIONS.

INZ001>003-010>013-019-020-121800-
NORTHWEST INDIANA

CITY           SKY/WX    TMP DP  RH WIND       PRES   REMARKS
GARY /AIRPORT/ PTSUNNY   21   5  49 NW14G25   30.10S WCI   8
KNOX *+        MOSUNNY   21  14  73 NW24G35   30.02S WCI   4
LA PORTE +     LGT SNOW  21  15  76 NW13G23   30.02S WCI   9
MICHIGAN CITY+ LGT SNOW  23  18  80 NW14G23   30.03F WCI  11
MONTICELLO +   SUNNY     24   6  46 NW18G25   30.05S WCI  10
RENSSELAER +   SUNNY     25   1  36 W16G22    30.07S WCI  12
VALPARAISO     CLOUDY    21  11  65 W20G29    30.04F WCI   6

$$

LMZ046-743>745-121800-
SOUTHERN LAKE MICHIGAN

STATION/POSITION TIME  TEMP    WIND        PRES    WAVE
                       AIR SEA DIR/SP/G            HT
                 (UTC) (F)     (DEG/KT/KT) (MB)    (FT)
BURNS HARBOR     1634   21     300/ 20/ 29 1017.3S
MICHIGAN CITY    1640   22     290/ 27/ 33   N/A

$$

INZ004-005-014>016-021>024-121800-
NORTH CENTRAL INDIANA

CITY           SKY/WX    TMP DP  RH WIND       PRES   REMARKS
ELKHART        LGT SNOW  21  16  79 NW12G22   29.97F WCI   9
GOSHEN         CLOUDY    22  13  68 NW18G24   29.96S WCI   7
LOGANSPORT +   MOSUNNY   27  10  50 W14G21    30.03F WCI  15
PERU/GRISSOM   MOSUNNY   25  11  55 W17       29.99F WCI  12
ROCHESTER +    LGT SNOW  25  19  80 W17       30.00F VSB 1   WCI  11
SOUTH BEND     CLOUDY    23  13  65 NW23G29   29.98F WCI   7
WARSAW +       LGT SNOW  21  18  86 N16G22    29.97S VSB 1   WCI   7

$$

INZ006>009-017-018-025>027-121800-
NORTHEAST INDIANA

CITY           SKY/WX    TMP DP  RH WIND       PRES   REMARKS
AUBURN +       PTSUNNY   25  12  58 NW13      29.95S WCI  13
FORT WAYNE     FLURRIES  22  16  78 NW12      29.95F WCI  10
HUNTINGTON +   CLOUDY    24  13  61 NW13G18   29.96F WCI  12
KENDALLVILLE + CLOUDY    20  12  68 NW12G18   29.93F WCI   9

$$

INZ028-029-035-036-043>045-051>053-121800-
WEST CENTRAL INDIANA

CITY           SKY/WX    TMP DP  RH WIND       PRES   REMARKS
CRAWFORDSVL +  MOSUNNY   23  11  60 MISG        N/A
GREENCASTLE +  MOSUNNY   25   9  50 NW12G20   30.08S WCI  14
LAFAYETTE      MOSUNNY   24   8  50 W17G23    30.07F WCI  11
TERRE HAUTE    SUNNY     25   9  50 NW17G30   30.12F WCI  12

$$

INZ030>032-037>040-046>048-054>057-064-065-121800-
CENTRAL INDIANA

CITY           SKY/WX    TMP DP  RH WIND       PRES   REMARKS
COLUMBUS       PTSUNNY   28   9  43 NW21      30.05S WCI  15
FRANKFORT +    SUNNY     27  11  51 NW18G24   30.06S WCI  14
GREENWOOD *+   MOSUNNY   31  16  54 NW13G22   30.04S WCI  21
INDIANAPOLIS   MOSUNNY   26  10  50 NW17G28   30.05S WCI  13
-EAGLE CREEK   SUNNY     26  10  50 NW18G25   30.04S WCI  13
KOKOMO +       PTSUNNY   26  12  55 W20       30.01F WCI  12
MARION +       CLOUDY    23  14  69 NW23      30.00S WCI   7
MT COMFORT *+  PTSUNNY   25  18  74 NW16G24   30.02S WCI  12
SHELBYVILLE    PTSUNNY   27  13  55 NW20G26   30.02S WCI  13
ZIONSVILLE +   MOSUNNY   23  11  59 NW15      30.03F WCI  10

$$

INZ033-034-041-042-049-050-058-059-121800-
EAST CENTRAL INDIANA

CITY           SKY/WX    TMP DP  RH WIND       PRES   REMARKS
MUNCIE         LGT SNOW  25  15  66 NW23G30   29.97F WCI  10
RICHMOND +     LGT SNOW  23  19  86 NW18G24   29.94S WCI   9

$$

INZ060-061-067>069-081>083-085>088-121800-
SOUTHWEST INDIANA

CITY           SKY/WX    TMP DP  RH WIND       PRES   REMARKS
EVANSVILLE     MOSUNNY   32  17  54 NW15G25   30.15S WCI  22
HUNTINGBURG +  PTSUNNY   30  14  51 NW20      30.11F WCI  17
WASHINGTON +   MOSUNNY   28  13  52 NW18G26   30.13F WCI  15

$$

INZ062-063-066-070>080-084-089>092-121800-
SOUTH CENTRAL AND SOUTHEAST INDIANA

CITY           SKY/WX    TMP DP  RH WIND       PRES   REMARKS
BEDFORD +      SUNNY     28   5  37 NW13G18   30.06  WCI  18
BLOOMINGTON    SUNNY     27   8  44 NW14G23   30.06S WCI  16
MADISON *+     MOSUNNY   32  10  40 NW10G22   30.03S WCI  24
NORTH VERNON + SUNNY     28  10  47 NW14      30.03S WCI  17
SEYMOUR +      MOSUNNY   32  12  43 NW15      30.04F WCI  22

$$





USA.gov is the U.S. government's official web portal to all federal, state and local government web resources and services.